Hourly Data Report for June 04, 2018

LONDON CS
ONTARIO
Current Station Operator: ECCC - MSC

43°02'00.000" N
81°09'00.000" W
278.00 m
6144478
71622
WSN

Download Data

Hourly Data (June 2018)
Hourly Data Report for June 4, 2018
TIME Temp Definition
°C
Dew Point Definition
°C
Rel Hum Definition
%
Wind Dir Definition
10's deg

Wind Spd Definition
km/h
Visibility Definition
km
Stn Press Definition
kPa
Hmdx Definition


Wind Chill Definition


Weather Definition


00:00 15.3 11.1 76 LegendMM LegendMM   97.52     LegendNANA
01:00 15.6 11.2 75 LegendMM LegendMM   97.51     LegendNANA
02:00 15.3 11.5 78 LegendMM LegendMM   97.49     LegendNANA
03:00 15.2 11.5 78 LegendMM LegendMM   97.51     LegendNANA
04:00 14.9 11.5 80 LegendMM LegendMM   97.53     LegendNANA
05:00 14.0 12.0 88 LegendMM LegendMM   97.59     LegendNANA
06:00 13.0 12.2 95 LegendMM LegendMM   97.65     LegendNANA
07:00 14.0 12.9 93 LegendMM LegendMM   97.65     LegendNANA
08:00 13.9 12.3 90 LegendMM LegendMM   97.64     LegendNANA
09:00 14.9 12.6 86 LegendMM LegendMM   97.63     LegendNANA
10:00 15.1 11.1 77 LegendMM LegendMM   97.66     LegendNANA
11:00 15.5 10.7 73 LegendMM LegendMM   97.69     LegendNANA
12:00 14.7 10.6 76 LegendMM LegendMM   97.71     LegendNANA
13:00 15.0 8.8 67 LegendMM LegendMM   97.72     LegendNANA
14:00 17.3 8.2 55 LegendMM LegendMM   97.64     LegendNANA
15:00 19.0 8.7 51 LegendMM LegendMM   97.60     LegendNANA
16:00 20.0 7.7 45 LegendMM LegendMM   97.63     LegendNANA
17:00 19.7 5.7 40 LegendMM LegendMM   97.62     LegendNANA
18:00 20.2 6.9 42 LegendMM LegendMM   97.62     LegendNANA
19:00 18.7 7.4 48 LegendMM LegendMM   97.54     LegendNANA
20:00 17.4 7.3 52 LegendMM LegendMM   97.54     LegendNANA
21:00 17.4 7.5 52 LegendMM LegendMM   97.53     LegendNANA
22:00 16.9 7.5 54 LegendMM LegendMM   97.49     LegendNANA
23:00 15.7 8.5 62 LegendMM LegendMM   97.46     LegendNANA

Notes on Data Quality.

Legend

  • E = Estimated
  • M = Missing
  • NA = Not Available*
  • [empty] = Indicates an unobserved value
Date modified: